This is the latest recevied weather packets stored in our database for station/object KQ4WWD. If no packets are shown the sender has not sent any weather packets the latest 10 day(s).
| Time | Temp. | Humidity | Pressure | Rain* | Wind** | Luminosity | Snow |
|---|---|---|---|---|---|---|---|
| 1777122023 | 22.78° C | 86% | 1011.7 hPa | 0 mm | - | 271 W/m² | - |
| 1777121718 | 22.78° C | 85% | 1011.8 hPa | 0 mm | - | 247 W/m² | - |
| 1777121416 | 22.78° C | 86% | 1011.8 hPa | 0 mm | - | 76 W/m² | - |
| 1777121116 | 22.22° C | 87% | 1011.8 hPa | 0 mm | - | 66 W/m² | - |
| 1777120814 | 21.67° C | 87% | 1011.7 hPa | 0 mm | - | 200 W/m² | - |
| 1777120509 | 21.67° C | 87% | 1011.8 hPa | 0 mm | - | 173 W/m² | - |
| 1777120204 | 21.67° C | 88% | 1011.7 hPa | 0 mm | - | 57 W/m² | - |
| 1777119900 | 21.11° C | 88% | 1011.9 hPa | 0 mm | - | 52 W/m² | - |
| 1777119597 | 20.56° C | 89% | 1011.6 hPa | 0 mm | - | 130 W/m² | - |
| 1777119292 | 20.56° C | 90% | 1011.5 hPa | 0 mm | - | 90 W/m² | - |
| 1777118987 | 20° C | 91% | 1011.7 hPa | 0 mm | - | 94 W/m² | - |
| 1777118683 | 20° C | 92% | 1011.7 hPa | 0 mm | - | 43 W/m² | - |
| 1777118378 | 19.44° C | 93% | 1011.4 hPa | 0 mm | - | 42 W/m² | - |
| 1777118076 | 19.44° C | 94% | 1011.4 hPa | 0 mm | - | 41 W/m² | - |
| 1777117772 | 18.89° C | 94% | 1011.5 hPa | 0 mm | - | 32 W/m² | - |
| 1777117469 | 18.89° C | 95% | 1011.5 hPa | 0 mm | - | 32 W/m² | - |
| 1777117166 | 18.89° C | 95% | 1011.5 hPa | 0 mm | - | 28 W/m² | - |
| 1777116861 | 18.33° C | 95% | 1011.5 hPa | 0 mm | - | 26 W/m² | - |
| 1777116557 | 18.33° C | 95% | 1011.2 hPa | 0 mm | - | 21 W/m² | - |
| 1777116254 | 18.33° C | 95% | 1011.2 hPa | 0 mm | - | 19 W/m² | - |
| 1777115949 | 17.78° C | 95% | 1011.2 hPa | 0 mm | - | 16 W/m² | - |
| 1777115644 | 18.33° C | 95% | 1011.3 hPa | 0 mm | - | 12 W/m² | - |
| 1777115339 | 17.78° C | 95% | 1011.3 hPa | 0 mm | - | 10 W/m² | - |
| 1777115036 | 17.78° C | 95% | 1011.2 hPa | 0 mm | - | 6 W/m² | - |
| 1777114733 | 17.78° C | 95% | 1011.2 hPa | 0 mm | - | 4 W/m² | - |
* Rain latest hour (hover to see other rain measurements)
** Current wind speed in m/s (hover to see current wind gust speed)